EW4997 Weather Reports


time (UTC)temp
C
wind
direction
speed
KPH
gust
KPH
rain 1hr
cm
rain 24hr
cm
rain mn
cm
humidity
%
barometer
mb
20260508203031 19 286 3.2 11.3 0.00 0.03 0.03 43 994.2
20260508201531 20 313 8.0 16.1 0.00 0.03 0.03 42 994.6
20260508200026 20 267 8.0 14.5 0.00 0.03 0.03 39 995.1
20260508194525 20 290 3.2 12.9 0.00 0.03 0.03 38 995.4
20260508193048 20 139 4.8 12.9 0.00 0.03 0.03 36 995.5
20260508191524 20 113 0.0 9.7 0.00 0.03 0.03 36 995.6
20260508190030 19 313 1.6 12.9 0.00 0.03 0.03 37 995.9
20260508184513 19 63 1.6 11.3 0.00 0.03 0.03 47 996.2
20260508183012 18 348 3.2 8.0 0.00 0.03 0.03 49 996.2
20260508181520 18 288 4.8 11.3 0.00 0.03 0.03 49 996.5
20260508180012 18 145 1.6 11.3 0.00 0.03 0.03 52 996.5
20260508174507 18 95 1.6 8.0 0.00 0.03 0.03 48 996.8
20260508173005 18 38 3.2 9.7 0.00 0.03 0.03 53 997.3
20260508171507 17 146 1.6 9.7 0.00 0.03 0.03 56 997.6
20260508164603 16 5 4.8 11.3 0.00 0.03 0.03 58 998.1
20260508163059 16 274 3.2 11.3 0.00 0.03 0.03 60 998.3
20260508161602 16 128 1.6 9.7 0.00 0.03 0.03 64 998.6
20260508160050 15 27 4.8 9.7 0.00 0.03 0.03 63 999.0
20260508154547 15 288 3.2 9.7 0.00 0.05 0.03 68 999.1
20260508153042 13 52 3.2 9.7 0.00 0.05 0.03 77 999.0
20260508151543 12 290 3.2 8.0 0.00 0.05 0.03 90 999.3
20260508150035 11 360 3.2 9.7 0.00 0.05 0.03 95 999.4
20260508144530 10 302 1.6 6.4 0.00 0.05 0.03 95 999.5
20260508143029 10 315 3.2 6.4 0.00 0.05 0.03 95 999.4
20260508141525 9 306 0.0 4.8 0.00 0.05 0.03 95 999.5
20260508140022 8 282 1.6 6.4 0.00 0.05 0.03 95 999.7
20260508134520 8 355 1.6 4.8 0.00 0.05 0.03 95 999.5
20260508133021 7 360 0.0 6.4 0.00 0.05 0.03 95 999.6
20260508131518 7 21 0.0 4.8 0.00 0.05 0.03 95 999.4
20260508130018 7 23 0.0 4.8 0.00 0.05 0.03 95 999.4
20260508124523 6 22 0.0 4.8 0.00 0.08 0.03 95 999.4
20260508123016 6 80 0.0 3.2 0.00 0.08 0.03 95 999.2
20260508121514 5 80 0.0 3.2 0.00 0.08 0.03 95 999.2
20260508120013 5 177 0.0 4.8 0.00 0.08 0.03 95 999.0
20260508114511 5 175 0.0 3.2 0.00 0.08 0.03 94 998.8
20260508113010 4 175 0.0 3.2 0.00 0.08 0.03 94 998.7
20260508111508 4 175 0.0 0.0 0.00 0.08 0.03 94 998.3
20260508110009 4 175 0.0 0.0 0.00 0.08 0.03 94 998.1
20260508104506 4 175 0.0 0.0 0.00 0.10 0.03 94 998.0
20260508103004 4 175 0.0 1.6 0.00 0.10 0.03 94 997.7
20260508101502 4 159 0.0 0.0 0.00 0.10 0.03 94 997.7
20260508100059 4 159 0.0 0.0 0.00 0.10 0.03 94 997.4
20260508094610 5 159 0.0 0.0 0.00 0.13 0.03 94 997.4
20260508093056 5 159 0.0 0.0 0.00 0.13 0.03 94 997.3
20260508091613 5 159 0.0 0.0 0.00 0.13 0.03 94 997.4
20260508090123 5 159 0.0 0.0 0.03 0.13 0.03 94 997.3
20260508084551 5 159 0.0 0.0 0.03 0.15 0.03 94 997.1
20260508083049 5 159 0.0 0.0 0.03 0.15 0.03 94 997.1
20260508081550 6 159 0.0 0.0 0.03 0.15 0.03 94 997.0
20260508080044 6 159 0.0 0.0 0.00 0.13 0.00 94 996.9
20260508074545 6 159 0.0 0.0 0.00 0.15 0.00 94 997.0
20260508073041 6 159 0.0 0.0 0.00 0.15 0.00 94 996.9
20260508071540 6 159 0.0 0.0 0.00 0.15 0.00 94 997.0
20260508070040 6 159 0.0 0.0 0.00 0.15 0.00 94 997.0
20260508064541 7 159 0.0 0.0 0.00 0.36 0.00 94 997.1
20260508063108 7 159 0.0 0.0 0.00 0.36 0.00 94 997.0
20260508061535 7 159 0.0 0.0 0.00 0.36 0.00 94 996.9
20260508060035 7 159 0.0 1.6 0.00 0.36 0.00 94 997.1
20260508054532 7 159 0.0 1.6 0.00 0.36 0.00 94 996.9
20260508053043 7 159 0.0 0.0 0.00 0.36 0.00 93 997.0
20260508051545 7 159 0.0 0.0 0.00 0.36 0.00 93 996.9
20260508050027 7 159 0.0 0.0 0.00 0.36 0.00 93 996.8
20260508044527 8 159 0.0 0.0 0.00 0.36 0.00 93 996.6
20260508043026 8 159 0.0 0.0 0.00 0.36 0.00 93 996.3
20260508041522 8 159 0.0 0.0 0.00 0.36 0.00 93 996.3
20260508040019 8 159 0.0 1.6 0.00 0.36 0.00 93 996.2
20260508034525 8 159 0.0 0.0 0.00 0.36 0.36 93 996.2
20260508033024 8 159 0.0 3.2 0.00 0.36 0.36 92 996.1
20260508031517 9 159 0.0 1.6 0.00 0.36 0.36 92 996.2
20260508030017 9 159 0.0 0.0 0.00 0.36 0.36 92 995.9
20260508024519 9 159 0.0 0.0 0.00 0.36 0.36 92 995.7
20260508023008 10 159 0.0 0.0 0.00 0.36 0.36 92 995.4
20260508021507 10 159 0.0 0.0 0.00 0.36 0.36 92 995.4
20260508020004 10 159 0.0 1.6 0.00 0.36 0.36 91 995.2
20260508014508 10 159 0.0 1.6 0.00 0.43 0.36 91 994.9
20260508013001 10 159 0.0 3.2 0.00 0.43 0.36 91 994.7
20260508011600 11 161 0.0 3.2 0.00 0.43 0.36 89 994.4
20260508010121 11 161 0.0 0.0 0.00 0.43 0.36 88 994.4
20260508004557 11 161 0.0 3.2 0.00 0.61 0.36 87 994.0
20260508003104 12 161 0.0 3.2 0.00 0.61 0.36 87 993.8
20260508001600 12 161 1.6 3.2 0.00 0.61 0.36 85 993.8
20260508000056 13 152 0.0 3.2 0.00 0.61 0.36 84 993.8
20260507234556 13 167 0.0 6.4 0.00 0.64 0.36 82 993.8
20260507233055 13 134 1.6 6.4 0.00 0.64 0.36 82 993.8
20260507231557 14 169 1.6 6.4 0.00 0.64 0.36 80 993.9
20260507230110 14 131 1.6 4.8 0.00 0.64 0.36 80 993.8
20260507224554 14 192 0.0 6.4 0.00 0.64 0.36 83 993.9
20260507223152 13 129 0.0 1.6 0.00 0.64 0.36 83 993.8
20260507221553 13 129 0.0 6.4 0.00 0.64 0.36 82 993.7
20260507220052 13 153 0.0 4.8 0.00 0.64 0.36 81 993.5
20260507214557 13 153 0.0 4.8 0.00 0.64 0.36 81 993.5
20260507213116 13 148 0.0 3.2 0.00 0.64 0.36 81 993.3
20260507211551 13 178 3.2 6.4 0.00 0.64 0.36 81 993.3
20260507210055 13 148 0.0 4.8 0.00 0.64 0.36 81 993.3
20260507204550 13 313 1.6 6.4 0.00 0.64 0.36 82 993.3